Lexington Weather

Lexington, Massachusetts, USA

32°F
11/15/2019 2:59am 
  • Lexington Conditions: Clear
  • Temperature: 32.2°F / 0.1°CWarmer 0.9°F than last hour.
  • Dew Point: 29.3°FIncreased 0.4°Fsince last hour.
  • Relative Humidity: 89%Decreased 2.0% since last hour.
  • Wind: Calm, 10-min avg: Calm, gust: 4 mph
  • Barometer: 30.17 inFalling 0.02  inHg/hr Falling Slowly
  • Visibility: 10 miles
  • Snow Today: 0.0 in
  •   

Regional Weather Roundup
for Boston / Norton, MA

        
000
ASUS41 KBOX 132301
RWRBOX

REGIONAL WEATHER ROUNDUP
NATIONAL WEATHER SERVICE BOSTON/NORTON MA
600 PM EST WED NOV 13 2019

NOTE:  "FAIR" INDICATES FEW OR NO CLOUDS BELOW 12,000 FEET WITH NO 
SIGNIFICANT WEATHER AND/OR OBSTRUCTIONS TO VISIBILITY.

MAZALL-140000-
EASTERN MASSACHUSETTS
  
CITY           SKY/WX    TMP DP  RH WIND       PRES   REMARKS
BOSTON         FAIR      29   4  34 NW15      30.35R WCI  18          
BEVERLY        FAIR      23   6  48 NW6       30.33R WCI  16          
LAWRENCE       FAIR      24   5  44 NW7       30.36R WCI  16          
BEDFORD        FAIR      24   4  42 NW8       30.34R WCI  15          
BLUE HILL        N/A     23   4  44 NW13G20   30.29R WCI  11          
NORWOOD        FAIR      28   3  34 NW9       30.35R WCI  19          
MARSHFIELD     NOT AVBL                                               
PLYMOUTH       FAIR      26   4  38 NW6       30.33R WCI  19          
TAUNTON        FAIR      27   3  35 NW3       30.34R                  
NEW BEDFORD    FAIR      26   4  38 CALM      30.34R                  
$$

MAZALL-140000-
CAPE COD AND THE ISLANDS
  
CITY           SKY/WX    TMP DP  RH WIND       PRES   REMARKS
FALMOUTH       CLEAR     25   3  39 NW7       30.32R WCI  17          
HYANNIS        NOT AVBL                                               
CHATHAM        FAIR      30  12  47 NW8       30.32R WCI  22          
PROVINCETOWN   FAIR      29  14  53 N22       30.33R WCI  15          
NANTUCKET      FAIR      30  10  43 N13       30.32R WCI  20          
MARTHAS VNYRD  FAIR      28   4  35 N10       30.33R WCI  19          
$$
 
MAZALL-140000-
CENTRAL AND WESTERN MASSACHUSETTS
  
CITY           SKY/WX    TMP DP  RH WIND       PRES   REMARKS
WORCESTER      FAIR      20   2  45 W7        30.29R WCI  11          
FITCHBURG      FAIR      23   4  44 NW9       30.35R WCI  13          
ORANGE         FAIR      22   4  46 W3        30.35R                  
SPRINGFIELD    NOT AVBL                                               
WESTFIELD      FAIR      23   4  44 NW10      30.37R WCI  12          
NORTH ADAMS    FAIR      17   6  62 SW3       30.35R                  
PITTSFIELD     FAIR      16   4  59 W6        30.31R WCI   7          
$$
 
RIZALL-140000-
RHODE ISLAND
  
CITY           SKY/WX    TMP DP  RH WIND       PRES   REMARKS
PROVIDENCE     FAIR      26   4  38 W9        30.36R WCI  17          
NEWPORT        FAIR      28   6  39 NW8       30.34R WCI  20          
BLOCK ISLAND   FAIR      27   7  42 N12       30.36R WCI  17          
SMITHFIELD     FAIR      23   6  48 NW7       30.33R WCI  15          
WESTERLY       FAIR      28   2  32 VRB5      30.38R WCI  23          
$$
 
CTZALL-140000-
CONNECTICUT
  
CITY           SKY/WX    TMP DP  RH WIND       PRES   REMARKS
BRADLEY INTL   FAIR      25   4  40 N3        30.38R                  
HARTFORD       FAIR      26   4  38 NW10      30.39R WCI  16          
BRIDGEPORT     FAIR      29   3  33 N3        30.40R                  
DANBURY        FAIR      25   3  38 CALM      30.38R                  
GROTON         NOT AVBL                                               
NEW HAVEN      FAIR      30   4  33 N5        30.39R WCI  25          
CHESTER        FAIR      25   1  36 VRB6      30.35R WCI  18          
MERIDEN        FAIR      26   3  37 NW6       30.39R WCI  19          
WILLIMANTIC    FAIR      25   4  40 NW9       30.37R WCI  15          
OXFORD         FAIR      22   6  50 N6        30.36R WCI  14          
$$

MEZ002-015-021-024-NHZ003-005-008-011-012-014-VTZ005-008-140000-
NORTHERN NEW ENGLAND
  
CITY           SKY/WX    TMP DP  RH WIND       PRES   REMARKS
PORTLAND ME    FAIR      21   8  57 NW12      30.33R WCI   9          
BANGOR ME      FAIR      19   9  65 NW8       30.26R WCI   9          
CONCORD NH     FAIR      19   6  57 N5        30.35R WCI  12          
MANCHESTER NH  FAIR      24   5  44 NW8       30.33R WCI  15          
NASHUA NH      FAIR      23   6  48 NW9       30.36R WCI  13          
PORTSMOUTH NH  PTCLDY    22   5  47 NW10      30.32R WCI  11          
JAFFREY NH     FAIR      19   4  51 VRB5      30.30R WCI  12          
KEENE NH       FAIR      16   5  62 NW3       30.36R                  
BURLINGTON VT  FAIR      16   5  62 E5        30.39R WCI   9          
MT. WASHINGTON NOT AVBL                                               
$$

NYZ052-076-140000-
EASTERN NEW YORK
  
CITY           SKY/WX    TMP DP  RH WIND       PRES   REMARKS
ALBANY         FAIR      22   8  55 NW10      30.40R WCI  11          
NEW YORK CITY  FAIR      32   6  33 NW9       30.39R WCI  24          
$$
 
ANZALL-140000-
MARINE OBSERVATIONS
  
STATION/POSITION TIME  TEMP    WIND        PRES    VSBY  WAVE
                       AIR SEA DIR/SP/G                  HT/PER
                 (UTC) (F)     (DEG/KT/KT) (MB)    (MI)  (FT/S)
BOSTON BUOY      2150   31 52  320/ 19/ 25 1025.5          3/ 4
BUZZARDS BAY     2200   30     350/ 18/ 20 1027.0R
NANTUCKET SOUND  2240      51                N/A           2/ 3
MASS BAY-STELLWA 2204   30 51  320/ 19/ 25 1026.2R  1 7/8  3/ 3
ISLE OF SHOALS   2200   25     300/ 24/ 28 1025.9R
S OF BLOCK IS    2230      58                N/A           4/ 6
$$

......................KEY.........................
  SKY/WX - SKY CONDITION/PRESENT WEATHER
  TMP    - TEMPERATURE IN FAHRENHEIT
  DWPT   - DEWPOINT IN FAHRENHEIT
  RH     - RELATIVE HUMIDITY IN PERCENT
  WIND   - DIRECTION AND SPEED IN MPH
  PRES   - MEAN SEA LEVEL PRESSURE IN INCHES OF HG
  WCI    - WIND CHILL INDEX
  VSB    - VISIBILITY IN MILES
  HX     - HEAT INDEX
  TC     - TEMPERATURE IN CELSIUS
  VRB    - VARIABLE WIND DIRECTION
  N/A    - NOT AVAILABLE
  
      

Other recent Regional Weather Roundups

Fri Nov 15, 3:00am

Fri Nov 15, 2:10am

Fri Nov 15, 2:00am

Fri Nov 15, 1:10am

Fri Nov 15, 1:00am

Fri Nov 15, 12:10am

Fri Nov 15, 12:00am

Thu Nov 14, 11:10pm

Thu Nov 14, 11:00pm

Thu Nov 14, 10:10pm

Thu Nov 14, 10:00pm

Thu Nov 14, 9:10pm

Thu Nov 14, 9:00pm

Thu Nov 14, 8:10pm

Thu Nov 14, 8:00pm

Thu Nov 14, 7:10pm

Thu Nov 14, 7:00pm

Thu Nov 14, 6:10pm

Thu Nov 14, 6:01pm

Thu Nov 14, 5:10pm

Thu Nov 14, 5:00pm

Thu Nov 14, 4:10pm

Thu Nov 14, 4:00pm

Thu Nov 14, 3:10pm

Thu Nov 14, 3:00pm

Thu Nov 14, 2:10pm

Thu Nov 14, 2:00pm

Thu Nov 14, 1:10pm

Thu Nov 14, 1:00pm

Thu Nov 14, 12:10pm

Thu Nov 14, 12:01pm

Thu Nov 14, 11:10am

Thu Nov 14, 11:00am

Thu Nov 14, 10:10am

Thu Nov 14, 10:01am

Thu Nov 14, 9:10am

Thu Nov 14, 9:00am

Thu Nov 14, 8:10am

Thu Nov 14, 8:00am

Thu Nov 14, 7:10am

Thu Nov 14, 7:00am

Thu Nov 14, 6:10am

Thu Nov 14, 6:00am

Thu Nov 14, 5:10am

Thu Nov 14, 5:00am

Thu Nov 14, 4:10am

Thu Nov 14, 4:00am

Thu Nov 14, 3:10am

Thu Nov 14, 3:00am

Thu Nov 14, 2:10am

Thu Nov 14, 2:00am

Thu Nov 14, 1:10am

Thu Nov 14, 1:00am

Thu Nov 14, 12:10am

Thu Nov 14, 12:00am

Wed Nov 13, 11:10pm

Wed Nov 13, 11:00pm

Wed Nov 13, 10:10pm

Wed Nov 13, 10:00pm

Wed Nov 13, 9:10pm

Wed Nov 13, 9:00pm

Wed Nov 13, 8:10pm

Wed Nov 13, 8:00pm

Wed Nov 13, 7:10pm

Wed Nov 13, 7:00pm

Wed Nov 13, 6:10pm

Wed Nov 13, 5:10pm

Wed Nov 13, 5:00pm

Wed Nov 13, 4:10pm

Wed Nov 13, 4:00pm

Wed Nov 13, 3:10pm

Wed Nov 13, 3:01pm

Wed Nov 13, 2:10pm

Wed Nov 13, 2:01pm

Wed Nov 13, 1:10pm

Wed Nov 13, 1:00pm

Wed Nov 13, 12:10pm

Wed Nov 13, 12:01pm

Wed Nov 13, 11:10am

Wed Nov 13, 11:00am

Wed Nov 13, 10:10am

Wed Nov 13, 10:00am

Wed Nov 13, 9:10am

Wed Nov 13, 9:00am

Wed Nov 13, 8:10am

Wed Nov 13, 8:00am

Wed Nov 13, 7:10am

Wed Nov 13, 7:00am

Wed Nov 13, 6:10am

Wed Nov 13, 6:00am

Wed Nov 13, 5:10am

Wed Nov 13, 5:00am

Wed Nov 13, 4:10am

Wed Nov 13, 4:00am

Wed Nov 13, 3:10am

Wed Nov 13, 3:00am

Wed Nov 13, 2:10am

Wed Nov 13, 2:00am

Wed Nov 13, 1:10am

Wed Nov 13, 1:00am

Wed Nov 13, 12:10am

Wed Nov 13, 12:00am

Tue Nov 12, 11:10pm

Tue Nov 12, 11:00pm

Tue Nov 12, 10:10pm

Tue Nov 12, 10:00pm

Tue Nov 12, 9:10pm

Tue Nov 12, 9:00pm

Tue Nov 12, 8:10pm

Tue Nov 12, 8:00pm

Tue Nov 12, 7:10pm

Tue Nov 12, 7:01pm

Tue Nov 12, 6:10pm

Tue Nov 12, 6:01pm

Tue Nov 12, 5:10pm

Tue Nov 12, 5:01pm

Tue Nov 12, 4:10pm

Tue Nov 12, 4:01pm

Tue Nov 12, 3:10pm

Tue Nov 12, 3:00pm

Tue Nov 12, 2:10pm

Tue Nov 12, 2:00pm

Tue Nov 12, 1:10pm

Tue Nov 12, 1:00pm

Tue Nov 12, 12:10pm

Tue Nov 12, 12:00pm

Tue Nov 12, 11:10am

Tue Nov 12, 11:00am

Tue Nov 12, 10:10am

Tue Nov 12, 10:01am

Tue Nov 12, 9:10am

Tue Nov 12, 9:00am

Tue Nov 12, 8:10am

Tue Nov 12, 8:00am

Tue Nov 12, 7:10am

Tue Nov 12, 7:00am

Tue Nov 12, 6:10am

Tue Nov 12, 6:00am

Tue Nov 12, 5:10am

Tue Nov 12, 5:01am

Tue Nov 12, 4:10am

Tue Nov 12, 4:00am

Tue Nov 12, 3:10am

Tue Nov 12, 3:01am

Meta data:

ID: ed13b96a-ab3b-4c54-ab50-2840068f7efe
Link: https://api.weather.gov/products/ed13b96a-ab3b-4c54-ab50-2840068f7efe